This is the latest recevied weather packets stored in our database for station/object K4DNM. If no packets are shown the sender has not sent any weather packets the latest 1 day(s).
| Time | Temp. | Humidity | Pressure | Rain* | Wind** | Luminosity | Snow |
|---|---|---|---|---|---|---|---|
| 1777985599 | 18.89° C | 70% | 1016.6 hPa | 0 mm | 0.89 m/s, 159° | 392 W/m² | - |
| 1777985299 | 18.89° C | 70% | 1016.6 hPa | 0 mm | 0.89 m/s, 184° | 376 W/m² | - |
| 1777984999 | 18.33° C | 70% | 1016.6 hPa | 0 mm | 0.89 m/s, 212° | 353 W/m² | - |
| 1777984696 | 18.33° C | 71% | 1016.7 hPa | 0 mm | 0.89 m/s, 177° | 333 W/m² | - |
| 1777984395 | 17.78° C | 72% | 1016.6 hPa | 0 mm | 0.89 m/s, 176° | 304 W/m² | - |
| 1777984156 | 17.78° C | 70% | 1016.5 hPa | 0 mm | 0.45 m/s, 237° | 294 W/m² | - |
| 1777983796 | 17.22° C | 72% | 1016.6 hPa | 0 mm | 0.45 m/s, 59° | 276 W/m² | - |
| 1777983556 | 16.67° C | 74% | 1016.6 hPa | 0 mm | 0.89 m/s, 274° | 254 W/m² | - |
| 1777983196 | 16.11° C | 75% | 1016.6 hPa | 0 mm | 0.45 m/s, 210° | 238 W/m² | - |
| 1777982896 | 15.56° C | 77% | 1016.6 hPa | 0 mm | 0.89 m/s, 206° | 221 W/m² | - |
| 1777982657 | 15.56° C | 79% | 1016.5 hPa | 0 mm | 0.89 m/s, 164° | 198 W/m² | - |
| 1777982296 | 15° C | 79% | 1016.5 hPa | 0 mm | 0.89 m/s, 279° | 197 W/m² | - |
| 1777982054 | 15° C | 79% | 1016.5 hPa | 0 mm | 0.89 m/s, 235° | 169 W/m² | - |
| 1777981692 | 15° C | 80% | 1016.5 hPa | 0 mm | 0.89 m/s, 241° | 142 W/m² | - |
| 1777981387 | 14.44° C | 81% | 1016.5 hPa | 0 mm | 0.89 m/s, 304° | 137 W/m² | - |
| 1777981088 | 14.44° C | 81% | 1016.4 hPa | 0 mm | 0.45 m/s, 195° | 112 W/m² | - |
| 1777980788 | 14.44° C | 84% | 1016.4 hPa | 0 mm | 0.45 m/s, 55° | 107 W/m² | - |
| 1777980489 | 13.33° C | 86% | 1016.3 hPa | 0 mm | 0.45 m/s, 285° | 97 W/m² | - |
| 1777980189 | 12.78° C | 87% | 1016.3 hPa | 0 mm | 0.45 m/s, 24° | 86 W/m² | - |
| 1777979888 | 12.22° C | 91% | 1016.3 hPa | 0 mm | 0.45 m/s, 111° | 75 W/m² | - |
| 1777979589 | 11.67° C | 93% | 1016.2 hPa | 0 mm | 0.45 m/s, 55° | 59 W/m² | - |
| 1777979288 | 11.11° C | 93% | 1016.2 hPa | 0 mm | 0.45 m/s, 298° | 41 W/m² | - |
| 1777978987 | 11.11° C | 93% | 1016.1 hPa | 0 mm | 0.45 m/s, 323° | 33 W/m² | - |
| 1777978688 | 10.56° C | 93% | 1016 hPa | 0 mm | 0.45 m/s, 321° | 28 W/m² | - |
| 1777978375 | 10.56° C | 93% | 1015.9 hPa | 0 mm | 0.45 m/s, 277° | 21 W/m² | - |
* Rain latest hour (hover to see other rain measurements)
** Current wind speed in m/s (hover to see current wind gust speed)